Regional Weather Roundup
Issued by NWS Midland/Odessa, TX

Skip options and go directly to product.
Home | Oldest Version | Previous Version | Current Version | All | Text Only | Save Text | Print | Product List | Glossary Off

Skip product version selection by date and time.   

585
ASUS44 KMAF 251410
RWRMAF
MIDLAND AREA WEATHER ROUNDUP
NATIONAL WEATHER SERVICE MIDLAND TX
800 AM CST SAT FEB 25 2017

...IN SOUTHWEST TEXAS AND SOUTHEAST NEW MEXICO...

CITY           SKY/WX    TMP DP  RH WIND       PRES   REMARKS
ALPINE         CLEAR     33   5  31 W8        30.17S WCI  25
ANDREWS        FAIR      29  21  72 E6        30.18R WCI  22
ARTESIA        CLEAR     32  18  55 SE9       30.17R WCI  24
BIG SPRING     CLEAR     32  22  66 NE8       30.22R WCI  25
CARLSBAD       CLEAR     31  19  61 E5        30.16R WCI  26
DRYDEN           N/A     44  28  53 N13       30.14R WCI  38
FORT STOCKTON  CLOUDY    40  24  53 SE8       30.14R WCI  34
GUAD PASS      CLOUDY    29  16  58 NE13        N/A  WCI  19
HOBBS          CLEAR     28  18  64 NE6       30.17R WCI  22
MARFA          CLOUDY    26   6  42 N6        30.14R WCI  19
MIDLAND AIRPK  CLEAR     34  23  65 NE7       30.19R WCI  27
MIDLAND INTL   CLEAR     35  21  56 E16       30.18R WCI  25
ODESSA         CLEAR     34  21  59 E12       30.17R WCI  25
PECOS          CLEAR     36  23  58 N7        30.16R WCI  30
PRESIDIO       FAIR      45   4  18 CALM      30.12R
SEMINOLE       CLEAR     27  19  72 E5        30.19R WCI  22
SNYDER         CLEAR     28  22  76 CALM      30.22R
WINK           CLEAR     30  20  66 N7        30.16R WCI  23
$$
...OTHER STATIONS IN TEXAS...

CITY           SKY/WX    TMP DP  RH WIND       PRES   REMARKS
ABILENE        CLEAR     32  24  72 N3        30.23R
AMARILLO       CLEAR     17  14  88 SW5       30.17R WCI  10
AUSTIN         SUNNY     45  30  55 N16       30.19R WCI  38
BROWNSVILLE    SUNNY     66  58  75 N7        30.03R
CORPUS CHRISTI SUNNY     54  40  59 NE14      30.10R
DALLAS FTW     SUNNY     38  25  59 N9        30.21R WCI  31
DEL RIO        CLEAR     46  34  62 CALM      30.16R
EL PASO        CLEAR     43   7  22 SE3       30.09R
HOUSTON INT    SUNNY     50  33  52 N10       30.15R
LUBBOCK        CLEAR     27  19  72 CALM      30.18R
SAN ANGELO     CLEAR     35  26  69 NE8       30.20R WCI  29
SAN ANTONIO    SUNNY     47  30  51 NE8       30.18R
WACO           SUNNY     39  27  62 N9        30.23R WCI  33
WICHITA FALLS  NOT AVBL
$$
...OTHER LOCATIONS IN NEW MEXICO...

CITY           SKY/WX    TMP DP  RH WIND       PRES   REMARKS
ALAMAGORDO     CLOUDY    32   5  32 SE5       30.09S WCI  27
ALBUQUERQUE    CLEAR     27   4  37 N6        30.09S WCI  20
CANNON AFB     NOT AVBL
CLOVIS         CLOUDY    19  12  73 SW5       30.14R WCI  13
HOLLOMAN AFB   CLOUDY    30   8  39 SE9       30.12S WCI  22
ROSWELL        CLEAR     24  10  55 SW5       30.17R WCI  18
RUIDOSO        CLOUDY    27   0  31 S3        30.09S
SANTA FE       CLEAR     10   2  69 N3        30.04F
TRUTH OR CONSE CLEAR     31  12  45 N5        30.07S WCI  26
TUCUMCARI      CLEAR     17  11  77 CALM      30.13S
$$

  • National Weather Service
  • Southern Region Headquarters
  • 819 Taylor Street, Room 10A06
  • Fort Worth, TX 76102
  • Page Author: NWS Fort Worth
  • Web Master: SR-SRH.Webmaster@noaa.gov
  •  
  • Page last modified: 30-Sep-2016 6:36 PM UTC
USA.gov is the U.S. government's official web portal to all federal, state and local government web resources and services.